Location: Agadir-Ikarkaouin
(31.1503°N, 9.0246°W)
Time: 04:00:03
(UTC+00:00)

NOSS 2-2 (D) - Pass Details

Date: 18 September 2020
Orbit: 469 x 1739 km, 63.3° (Epoch: 23 October)

Event Time Altitude Azimuth Distance (km) Brightness Sun altitude
Rises 19:14:35 0° 209° (SSW) 2,649 7.1 -8.8°
Reaches altitude 10° 19:16:49 10° 210° (SSW) 1,685 6.1 -9.2°
Maximum altitude 19:20:26 86° 297° (WNW) 475 3.0 -10.0°
Drops below altitude 10° 19:23:57 10° 28° (NNE) 1,648 5.6 -10.8°
Sets 19:26:08 0° 29° (NNE) 2,583 6.5 -11.2°
